www.pogodaiklimat.ru

Погода и климат >> Архив погоды >> Узбекистан >> Нукус


ПОГОДА в Нукусе

  • Прогноз погоды в Нукусе
  • Монитор погоды в Нукусе

АРХИВ ПОГОДЫ в Нукусе

Время (UTC), дата Ветер
(напр.,м/с)
 
Видим.   Явления Облачность Т
(С)
Тd
(С)
f
(%)
Тe
(С)
Тes
(С)
Комфортность P
(гПа)
Po
(гПа)
Тmin
(С)
Tmax
(С)
R
(мм)
R24
(мм)
S
(см)
00 9.06 С 3 20 км 3/0
[Ci fib]
+18.1 +6.7 47 +18 +18 1015.1 1006.1
03 9.06 нст 1 20 км 8/0
[Ci ing]
+20.2 +6.2 40 +22 +26 комфорт 1015.8 1007.0
06 9.06 СЗ 4 20 км 8/0
[Ci ing]
+23.8 +6.2 32 +24 +33 комфорт 1017.3 1008.5 +17.8
09 9.06 СЗ 6 20 км 8/0
[Ac trans Ci fib]
+26.6 +5.1 25 +26 +31 жарко 1016.8 1008.1
12 9.06 СЗ 6 20 км 4/0
[Ac trans]
+27.8 +3.8 21 +26 +29 жарко 1016.2 1007.5
15 9.06 С 5 20 км 3/0
[Ac lent]
+26.4 +3.8 23 +25 +25 комфорт 1016.4 1007.7 +28.2
18 9.06 СЗ 3 20 км ясно +22.0 +5.1 33 +22 +22 комфорт 1017.5 1008.7 +28.2
21 9.06 СЗ 3 20 км 3/0
[Ac trans]
+19.4 +7.0 44 +20 +20 1017.9 1008.9
00 10.06 С 3 20 км ясно +17.6 +7.6 52 +18 +18 1018.5 1009.5
03 10.06 нст 1 20 км ясно +21.9 +5.8 35 +22 +27 комфорт 1019.8 1011.0
06 10.06 СЗ 5 20 км 1/1 1500 м
[Cu hum]
+27.4 +3.4 21 +26 +34 жарко 1020.4 1011.7 +16.7
09 10.06 З 5 20 км 5/5 1500 м
[Cu hum]
+29.5 +2.3 17 +27 +32 жарко 1019.8 1011.1
12 10.06 СЗ 8 20 км 4/3 1500 м
[Cu hum Ac trans]
+29.7 +0.4 15 +27 +28 жарко 1018.9 1010.2
15 10.06 С 3 20 км ясно +28.6 +0.6 16 +26 +26 жарко 1018.9 1010.2 +30.1
18 10.06 нст 1 20 км ясно +22.6 +5.5 33 +23 +23 комфорт 1019.7 1010.9 +30.1
21 10.06 СЗ 1 20 км ясно +19.3 +5.8 41 +21 +21 комфорт 1019.6 1010.6
00 11.06 С 1 20 км ясно +16.5 +5.8 49 +17 +17 1019.3 1010.3 +1.2
03 11.06 С 1 20 км ясно +23.1 +6.4 34 +24 +29 комфорт 1019.7 1010.9
06 11.06 С 4 20 км ясно +29.2 -0.7 14 +26 +37 жарко 1019.6 1010.9 +16.3
09 11.06 С 4 20 км ясно +31.5 -0.2 13 +28 +41 жарко 1018.0 1009.5
12 11.06 С 4 20 км ясно +32.2 -0.7 12 +29 +34 жарко 1016.4 1007.9
15 11.06 С 3 20 км ясно +31.0 -0.2 13 +28 +28 жарко 1015.6 1007.1 +32.4
18 11.06 нст 1 20 км ясно +24.9 +8.4 35 +25 +25 комфорт 1015.8 1007.1 +32.4
21 11.06 Ю 2 20 км ясно +20.5 +8.2 45 +22 +22 комфорт 1015.1 1006.3
00 12.06 штиль 0 20 км ясно +18.7 +8.5 51 +19 +19 1014.8 1005.8
03 12.06 СЗ 2 20 км ясно +26.0 +5.6 27 +25 +30 комфорт 1015.6 1006.9
06 12.06 С 3 20 км ясно +31.4 +2.9 16 +29 +42 жарко 1014.6 1006.1 +18.5
09 12.06 З 5 20 км 1/0
[Ci sp]
+33.7 +1.7 13 +31 +40 жарко 1012.8 1004.3
12 12.06 З 4 20 км 1/0
[Ci ing]
+34.1 +0.9 12 +31 +36 жарко 1011.9 1003.4
15 12.06 З 2 20 км ясно +32.4 +3.6 16 +30 +30 жарко 1010.8 1002.3 +34.4
18 12.06 З 2 20 км ясно +26.2 +10.0 36 +27 +27 жарко 1011.2 1002.5 +34.4
21 12.06 штиль 0 20 км ясно +21.0 +8.9 46 +22 +22 комфорт 1010.4 1001.7
00 13.06 С 1 20 км ясно +19.7 +11.8 60 +22 +22 комфорт 1010.0 1001.3 +1.5
03 13.06 З 1 20 км ясно +27.2 +7.7 29 +27 +32 жарко 1010.4 1001.8
06 13.06 СЗ 3 20 км ясно +33.7 +2.9 14 +31 +44 жарко 1009.9 1001.4 +19.0
09 13.06 З 3 20 км 1/0
[Ac trans]
+35.6 +1.1 11 +32 +47 жарко 1008.5 1000.2
12 13.06 З 4 20 км 3/0
[Ac trans Ci fib]
+35.8 +1.1 11 +32 +37 жарко 1007.0 998.7
15 13.06 З 2 20 км 5/0
[Ci ing]
+33.6 +3.4 15 +31 +31 жарко 1007.0 998.5 +36.3
18 13.06 ЮЗ 2 20 км 1/0
[Ci fib]
+28.6 +5.5 23 +27 +27 жарко 1006.7 998.1 +36.3
21 13.06 нст 1 20 км 1/0
[Ci fib]
+24.9 +6.1 30 +25 +25 комфорт 1005.6 997.0
00 14.06 ЮЗ 1 20 км 1/0
[Ci fib]
+22.1 +10.0 46 +24 +24 комфорт 1005.3 996.6
03 14.06 ЮЗ 2 20 км 4/0
[Ci]
+26.6 +7.6 30 +26 +30 жарко 1005.9 997.3
06 14.06 ЮЗ 4 20 км 3/0
[Ci]
+33.9 +7.4 19 +32 +42 жарко 1005.8 997.3 +21.9
09 14.06 ЮЗ 5 20 км 4/3 1500 м
[Cu med, cong Ac trans]
+37.9 -0.2 9 +34 +40 очень
жарко
1004.6 996.3
12 14.06 ЮЗ 5 20 км 6/1 1500 м
[Cb cap Ac trans]
+37.1 -0.7 9 +33 +36 жарко 1004.0 995.7
15 14.06 СЗ 4 20 км 9/3 1500 м
[Cb cap Ac As]
+30.7 +7.4 23 +29 +29 жарко 1005.5 997.0 +38.2
18 14.06 З 5
{23}
20 км {ливн. осадки, метель} 4/0
[Ac trans]
+27.0 +9.0 32 +27 +27 жарко 1006.4 997.8 +38.2
21 14.06 СЗ 6 20 км 3/0
[Ac trans]
+22.7 +3.2 28 +23 +23 комфорт 1007.0 998.3
00 15.06 СЗ 3 20 км ясно +18.0 +5.5 44 +18 +18 1008.4 999.5 +1.6
03 15.06 СЗ 2 20 км ясно +21.8 +7.6 40 +23 +27 комфорт 1009.4 1000.7 0.0
06 15.06 ЮЗ 2 20 км ясно +28.0 +7.7 28 +28 +44 жарко 1010.0 1001.4 +17.7 0.0
09 15.06 З 5 20 км ясно +30.3 -1.2 13 +27 +37 жарко 1009.6 1001.1
12 15.06 З 7 20 км ясно +31.9 -3.6 10 +28 +31 жарко 1008.8 1000.3
15 15.06 З 3 20 км ясно +29.6 -0.2 15 +27 +27 жарко 1008.9 1000.3 +32.2
18 15.06 СЗ 3 20 км ясно +22.5 +2.5 27 +22 +22 комфорт 1010.6 1001.9 +32.2
21 15.06 С 4 20 км ясно +20.1 +2.1 30 +20 +20 1011.0 1002.3

 

Местоположение метеостанции Нукус (Каракалпакстан, Узбекистан): широта 42.45 долгота 59.62 высота над уровнем моря 77 м.

В архиве по умолчанию представлена погода в Нукусе за последнюю неделю. Архивные данные за месяц целиком и за предыдущие месяцы, начиная с января 2011 года, Вы можете получить, выбрав интересующий диапазон дат из раскрывающегося списка и нажав кнопку "Ввод!".


*Определитесь, кто Вы:
робот инопланетянин человек

Внимание! Время в таблицах - всемирное. Для получения местного времени необходимо прибавить поправку, которая равна 5 ч.

Смотрите также архив погоды в соседних городах и на ближайших метеорологических станциях:

Погода в Тахтакупыре (Каракалпакстан, Узбекистан) (3 км)
Погода в Тахиаташе (Каракалпакстан, Узбекистан) (6 км)
Погода в Кенеургенче (Дашогузский велаят, Туркменистан) (44 км)
Погода в Чимбае (Каракалпакстан, Узбекистан) (58 км)
Погода в Дашогузе (Дашогузский велаят, Туркменистан) (80 км)
Погода в Кунграде (Каракалпакстан, Узбекистан) (90 км)
Погода в Гурлене (Хорезмская область, Узбекистан) (92 км)
Погода в Шах-Сенеме (Дашогузский велаят, Туркменистан) (122 км)
Погода в Ургенче (Хорезмская область, Узбекистан) (125 км)
Погода в Хиве (Хорезмская область, Узбекистан) (133 км)

Пояснения к столбцам:

Ветер - указаны скорость ветра в м/с - средняя за 10 мин, порывы в срок и между сроками (в фигурных скобках) и направление, откуда дует ветер: С - северный, СВ - северо-восточный, В - восточный, ЮВ - юго-восточный, Ю - южный, ЮЗ - юго-западный, З - западный, СЗ - северо-западный.
Видимость - горизонтальная дальность видимости в метрах или километрах. При видимости от 1 до 10 км при отсутствии осадков обычно наблюдается дымка, при ухудшении видимости до 1 км и менее - туман. В сухую погоду видимость может ухудшаться дымом, пылью или мглою.
Явления - указаны атмосферные явления, наблюдавшиеся в срок или в последний час перед сроком; фигурными скобками обозначены явления, наблюдавшиеся между сроками (за 1-3 часа до срока); квадратными скобками обозначены град или гололедные отложения с указанием их диаметра в мм.
Облачность - указаны через наклонную черту общая и нижняя облачность в баллах и высота нижней границы облаков в метрах; квадратными скобками обозначены формы облаков: Ci - перистые, Cs - перисто-слоистые, Cc - перисто-кучевые, Ac - высококучевые, As - высокослоистые, Sc - слоисто-кучевые, Ns - слоисто-дождевые, Cu - кучевые, Cb - кучево-дождевые. Подробнее классификацию облаков см. в Атласе облаков (PDF).
T - Температура воздуха - температура, измеренная на высоте 2 м над землей.
Td - Температура точки росы - температура, при понижении до которой содержащийся в воздухе водяной пар достигнет насыщения.
f - Относительная влажность воздуха - влажноcть воздуха, измеренная на высоте 2 м над землей.
Te - Эффективная температура - температура, которую ощущает одетый по сезону человек в тени. Характеристика душности погоды. При расчете учитывается влияние влажности воздуха и скорости ветра на теплоощущения человека.
Tes - Эффективная температура на солнце - температура, которую ощущает человек, с поправкой на солнечный нагрев. Характеристика знойности погоды. Зависит от высоты солнца над горизонтом, облачности и скорости ветра. Ночью, в пасмурную погоду, а также при ветре 12 м/с и более поправка равна нулю.
P - Атмосферное давление - приведенное к уровню моря атмосферное давление.
Po - Атмосферное давление - измеренное на уровне метеостанции атмосферное давление.
Tmin - Минимальная температура - минимум температуры воздуха на высоте 2 м над землей.
Tmax - Максимальная температура - максимум температуры воздуха на высоте 2 м над землей.
R - Количество осадков - Количество выпавших осадков за период времени, мм. При наведении курсора мыши на число - период времени, за который выпало указанное количество осадков.
R24 - Количество осадков - Количество выпавших осадков за 24 часа, мм.
S - Снежный покров - Высота снежного покрова, см. При наведении курсора мыши на число - состояние снежного покрова и степень покрытия местности в баллах.